Location: Bijele Vode
(45.2833°N, 16.2000°E)
Time: 12:13:49
(UTC+00:00)

CENTAUR R/B - Pass Details

Date: 18 January 2021
Orbit: 742 x 1446 km, 63.5° (Epoch: 02 March)

Event Time Altitude Azimuth Distance (km) Brightness Sun altitude
Rises 16:20:29 0° 315° (NW) 4,262 6.2 -6.8°
Reaches altitude 10° 16:23:36 10° 305° (NW) 3,374 5.8 -7.3°
Maximum altitude 16:30:33 30° 249° (WSW) 2,312 5.4 -8.4°
Drops below altitude 10° 16:37:52 10° 194° (SSW) 3,551 5.9 -9.6°
Sets 16:41:16 0° 184° (S) 4,517 6.3 -10.2°
